Location: Sommers-Bausch Observatory
(40.0037°N, 105.2635°W)
Time: 11:09:32
(UTC-06:00)

Daily predictions for brighter satellites

Satellite Brightness Start Highest point End
(mag) Time Altitude Azimuth Time Altitude Azimuth Time Altitude Azimuth
NOSS 0 Rocket 4.3 20:55:21 10° NNW 21:01:32 69° WSW 21:07:42 10° SSE
Cosmos 2082 3.7 20:57:19 10° SSW 21:02:56 86° ESE 21:08:35 10° NNE
Milstar 3 Cent rocket 4.0 20:59:47 10° WSW 21:05:50 37° S 21:16:57 10° ESE
Resurs 01 Rocket 3.1 21:02:38 10° SSW 21:06:42 37° W 21:10:49 10° NNW
Cosmos 1939 Rocket 2.9 21:05:05 10° SSE 21:09:03 81° ENE 21:13:07 10° N
Cosmos 2297 Rocket 2.3 21:03:52 10° SSW 21:09:30 89° W 21:15:12 10° NNE
Meteor 2-15 4.4 21:05:57 10° S 21:11:58 76° E 21:18:02 10° N
Cosmos 1867 4.1 21:11:10 10° S 21:16:03 35° ESE 21:20:59 10° NE
Cosmos 1023 Rocket 4.5 21:11:04 10° SSW 21:16:14 85° ESE 21:21:22 10° NNE
Cosmos 1340 Rocket 2.8 21:15:33 10° S 21:19:31 66° E 21:23:32 10° NNE
Cosmos 2100 Rocket 4.5 21:18:04 10° N 21:24:05 45° ENE 21:30:07 10° SSE
Spot 1 4.1 21:21:58 10° S 21:26:01 77° WSW 21:30:13 10° NNW
YAOGAN 6 2.6 21:26:06 10° SSE 21:29:43 87° WSW 21:33:24 10° NNW
ATLAS 5 CENTAUR R/B 1.7 21:25:10 10° SSW 21:29:44 66° ESE 21:34:41 10° NE
CZ-4B DEB 2.8 21:27:29 10° S 21:30:25 68° W 21:33:24 10° NNW
Cosmos 2084 3.4 21:27:05 10° SSW 21:30:59 48° ESE 21:34:43 10° NE
Cosmos 1726 4.1 21:29:30 10° NE 21:31:37 15° ENE 21:33:27 11° ESE
SPOT 5 3.8 21:28:20 12° SE 21:32:16 33° ENE 21:36:45 10° N
Cosmos 1850 Rocket 4.0 21:27:50 10° S 21:32:57 67° ESE 21:38:07 10° NNE
Lacrosse 5 3.5 21:28:45 10° NNW 21:32:58 25° NNE 21:37:10 10° E
Helios 1B rocket 3.1 21:29:46 10° N 21:33:52 60° WNW 21:37:56 10° SSW
Helios 1A 3.7 21:30:25 10° S 21:34:27 52° W 21:38:31 10° NNW
Cosmos 614 Rocket 4.1 21:29:49 10° SSW 21:35:02 80° WNW 21:40:16 10° NNE
Cosmos 2173 Rocket 4.3 21:31:15 10° N 21:37:14 51° E 21:42:44 12° SSE
Cosmos 2237 Rocket 3.2 21:33:34 10° NW 21:38:52 43° WSW 21:44:08 10° S
H-2A R/B 3.1 21:41:24 14° SE 21:45:16 33° ENE 21:50:04 10° N
ERS-1 Rocket 3.0 21:41:43 11° SSE 21:46:38 86° ENE 21:51:42 10° NNW
USA 234 3.2 21:40:18 10° NE 21:46:47 62° SE 21:53:14 10° SSW
Atlas Centaur 2 2.8 21:46:06 10° SW 21:48:25 16° S 21:49:18 15° S
Lacrosse 4 Rocket 4.3 21:47:18 10° WSW 21:50:39 22° NW 21:54:05 10° N
Cosmos 1674 2.6 21:47:41 10° S 21:51:27 74° E 21:55:13 10° N
Cosmos 1908 3.2 21:48:32 10° N 21:52:25 72° E 21:55:15 17° SSE
Cosmos 1818 3.6 21:47:24 10° NNW 21:52:53 81° ENE 21:56:55 18° SE
Cosmos 2227 Rocket 4.2 21:48:08 10° WSW 21:53:09 32° WNW 21:58:12 10° N
Cosmos 1802 Rocket 4.1 21:50:03 10° N 21:56:08 62° E 22:00:59 16° SSE
Cosmos 1741 Rocket 4.2 21:51:57 10° SSW 21:57:16 76° WNW 22:02:36 10° NNE
KORONAS-FOTON 3.7 21:59:18 16° S 22:02:10 65° E 22:05:57 10° NNE
SL-16 R/B 2.4 21:56:52 10° NNW 22:02:30 68° WSW 22:07:03 16° S
Cosmos 1408 Rocket 3.5 22:00:39 16° S 22:03:54 60° E 22:08:10 10° NNE
Tiangong 1 1.6 22:02:41 10° W 22:05:26 50° N 22:07:55 12° ENE
ARGOS 3.1 22:01:49 17° SSE 22:06:00 79° ENE 22:11:26 10° N
Meteor 2-17 Rocket 4.5 22:01:43 10° N 22:07:55 86° W 22:13:11 15° S
Cosmos 1356 Rocket 3.6 22:04:00 10° SSW 22:08:13 78° W 22:12:31 10° N
MetOp-A 4.2 22:03:41 15° S 22:08:14 77° WSW 22:13:38 10° NNW
Cosmos 1076 Rocket 3.8 22:04:52 10° SSW 22:09:13 71° W 22:13:35 10° N
Cosmos 2058 4.5 22:15:04 19° E 22:15:34 19° E 22:18:34 10° NE
Terra 2.9 22:15:15 21° ESE 22:17:23 31° ENE 22:21:32 10° N
DMSP B5D2-2 4.5 22:13:30 10° NNE 22:18:29 43° E 22:21:02 25° SSE
Cosmos 2221 3.8 22:17:35 10° NNW 22:21:38 37° W 22:25:34 11° SSW
Cosmos 1500 Rocket 4.4 22:22:20 29° SE 22:23:35 34° E 22:27:38 10° NNE
ERBS 4.3 22:23:40 10° NNW 22:26:21 21° NE 22:27:57 16° ENE
Cosmos 2016 Rocket 4.0 22:21:38 10° N 22:27:56 88° W 22:32:11 22° S
Cosmos 332 Rocket 3.9 22:26:16 10° NNW 22:31:09 63° ENE 22:33:15 33° SE
Cosmos 2151 3.8 22:30:35 31° ESE 22:31:22 33° E 22:35:15 10° NNE
RESURS DK-1 2.5 22:29:45 10° NNW 22:33:54 65° ENE 22:35:16 39° SE
CARTOSAT-1 4.2 22:32:40 32° ESE 22:34:03 42° ENE 22:38:08 10° N
Cosmos 1242 Rocket 4.0 22:31:05 10° NNW 22:34:28 34° W 22:36:40 18° SSW
Cosmos 2227 4.3 22:30:13 10° SSW 22:35:57 80° WNW 22:41:42 10° NNE
Cosmos 1814 Rocket 4.2 22:30:48 10° NNW 22:36:06 61° ENE 22:38:25 33° SE
SL-08 RB Rocket 4.0 22:34:11 25° S 22:36:44 61° W 22:41:18 10° NNW
Cosmos 1766 Rocket 4.4 22:35:44 13° SSW 22:39:27 48° W 22:43:40 10° N
Cosmos 1486 Rocket 4.1 22:37:19 31° SSE 22:39:37 54° ESE 22:44:47 10° NNE
SPOT 1/Viking Rocket 3.6 22:37:14 27° S 22:40:02 75° WSW 22:45:13 10° NNW
USA 245 4.3 22:40:57 25° SW 22:42:15 35° W 22:45:50 10° NNW
Meteor 2-2 Rocket 4.3 22:41:08 10° NNW 22:46:56 82° W 22:50:03 29° S
SL-14 R/B 3.3 22:46:08 35° SSW 22:47:42 77° W 22:51:41 10° N
Cosmos 1328 Rocket 3.5 22:44:06 10° N 22:48:27 83° W 22:49:54 42° S
Cosmos 841 Rocket 4.0 22:44:25 10° N 22:49:30 48° ENE 22:51:18 34° ESE
Cosmos 2228 Rocket 3.1 22:45:46 10° N 22:50:22 87° W 22:51:58 41° S
Cosmos 1515 Rocket 3.4 22:47:44 10° N 22:52:05 77° E 22:53:11 49° SSE
Cosmos 1763 Rocket 3.5 22:47:52 10° NNW 22:52:58 66° ENE 22:54:37 41° SE
Cosmos 1328 4.0 22:51:24 34° SSW 22:53:02 68° W 22:57:04 10° N
Cosmos 2233 Rocket 4.0 22:47:11 10° N 22:53:22 63° E 22:55:56 35° SSE
H-2A R/B 2.3 22:54:28 45° ESE 22:55:25 56° ENE 22:59:36 10° N
Cosmos 1743 Rocket 3.6 22:54:02 34° SSW 22:55:50 74° W 23:00:09 10° N
EO 1 Delta rocket 4.4 22:54:27 27° SSW 22:56:50 53° W 23:01:21 10° NNW
Cosmos 1300 3.2 22:55:22 10° NNW 22:59:06 54° W 23:00:02 42° SW
Cosmos 1626 2.5 23:00:21 48° E 23:00:21 48° E 23:03:45 10° NNE
Cosmos 1151 Rocket 3.0 22:56:28 10° N 23:00:52 73° E 23:01:42 55° SE
Cosmos 2263 Rocket 2.1 23:03:21 40° S 23:05:16 63° ESE 23:10:48 10° NNE
Cosmos 1726 3.6 23:03:45 10° NNW 23:07:01 30° W 23:08:04 26° WSW
IGS 5A 3.4 23:10:27 59° SSW 23:11:09 76° WSW 23:15:19 10° NNW
SL-19 R/B 4.1 23:06:23 10° NNE 23:11:44 83° ESE 23:13:56 38° S
Cosmos 1447 Rocket 4.5 23:09:12 33° S 23:12:15 88° E 23:18:39 10° N
Lacrosse 5 1.8 23:11:19 10° NW 23:16:21 70° SW 23:17:19 55° S
PSLV R/B 4.4 23:21:17 37° N 23:21:17 37° N 23:23:09 10° N
Abrixas rocket 3.1 23:17:18 10° NW 23:20:10 47° N 23:20:10 47° N
Cosmos 371 Rocket 3.8 23:17:17 10° NNW 23:21:57 51° WSW 23:23:02 42° SW
Meteor 2-12 Rocket 4.3 23:16:31 10° N 23:22:37 90° E 23:24:38 45° S
H-2A R/B 3.5 23:22:02 21° SW 23:24:37 31° W 23:29:22 10° NW
Cosmos 1503 Rocket 3.9 23:24:16 56° SSE 23:25:15 71° ESE 23:30:25 10° NNE
CZ-4C R/B 3.6 23:28:58 59° E 23:29:07 59° ENE 23:33:25 10° N
USA 234 4.4 23:23:31 10° NE 23:29:36 43° NNW 23:35:41 10° W
Cosmos 1455 2.3 23:29:16 10° N 23:32:48 68° NNE 23:32:48 68° NNE
Cosmos 2285 Rocket 4.0 23:27:14 10° NNW 23:33:36 71° ENE 23:35:29 47° SE
DELTA 2 DEB (DPAF) 4.0 23:34:15 72° ESE 23:34:33 77° ENE 23:39:02 10° N
Cosmos 1844 Rocket 4.0 23:40:45 24° E 23:40:45 24° E 23:44:31 10° NE
Tiangong 1 3.7 23:38:29 10° WNW 23:39:05 15° WNW 23:39:05 15° WNW
ARGOS Delta rocket 4.2 23:36:41 10° NNE 23:41:52 52° E 23:42:08 52° ESE
Cosmos 2034 Rocket 4.4 23:35:48 10° N 23:41:58 50° ENE 23:43:29 41° ESE
deb Chang Zheng 4 4.3 23:39:05 10° N 23:43:18 48° WNW 23:44:23 39° WSW
ALOS 2 4.0 23:43:56 26° ENE 23:44:10 26° ENE 23:47:48 10° NNE
Sich 1 3.5 23:44:49 47° ENE 23:44:49 47° ENE 23:48:26 10° NNE
CZ-2C R/B 4.1 23:44:03 35° ESE 23:45:27 41° ENE 23:50:46 10° N
Cosmos 1943 3.5 23:41:12 10° NNW 23:46:42 54° WSW 23:47:48 46° SW
Cosmos 1891 Rocket 4.5 23:43:35 10° N 23:49:37 64° E 23:50:51 52° SE
CZ-4B R/B 3.8 23:46:22 10° N 23:51:37 65° WNW 23:53:06 45° SW
Cosmos 1703 4.5 23:51:37 34° W 23:52:02 35° WNW 23:55:44 10° N
Cosmos 2058 4.4 23:51:16 27° WSW 23:52:15 30° WNW 23:56:00 10° NNW
Cosmos 968 Rocket 4.1 23:53:40 40° E 23:53:40 40° E 23:58:13 10° NNE
Cosmos 1707 Rocket 3.6 23:49:29 10° N 23:53:51 74° ENE 23:53:51 74° ENE
CZ-4C R/B 2.7 23:54:51 40° E 23:54:51 40° E 23:59:31 10° NE
Terra 3.3 23:54:08 25° WSW 23:55:05 27° W 23:59:06 10° NW
